This is the latest recevied weather packets stored in our database for station/object JH1LWU-13. If no packets are shown the sender has not sent any weather packets the latest 10 day(s).
| Time | Temp. | Humidity | Pressure | Rain* | Wind** | Luminosity | Snow |
|---|---|---|---|---|---|---|---|
| 1788113942 | 22.78° C | 76% | 1007 hPa | - | - | - | - |
| 1788112141 | 22.78° C | 77% | 1008 hPa | - | - | - | - |
| 1788110340 | 22.78° C | 77% | 1007 hPa | - | - | - | - |
| 1788108539 | 22.78° C | 77% | 1007 hPa | - | - | - | - |
| 1788106738 | 22.78° C | 76% | 1007 hPa | - | - | - | - |
| 1788104937 | 22.78° C | 76% | 1006 hPa | - | - | - | - |
| 1788103136 | 22.78° C | 76% | 1007 hPa | - | - | - | - |
| 1788101335 | 22.22° C | 77% | 1007 hPa | - | - | - | - |
| 1788099534 | 22.22° C | 77% | 1007 hPa | - | - | - | - |
| 1788097733 | 22.22° C | 76% | 1007 hPa | - | - | - | - |
| 1788095932 | 22.22° C | 76% | 1008 hPa | - | - | - | - |
| 1788094131 | 22.78° C | 76% | 1008 hPa | - | - | - | - |
| 1788092330 | 22.78° C | 75% | 1008 hPa | - | - | - | - |
| 1788090529 | 23.33° C | 76% | 1007 hPa | - | - | - | - |
| 1788088728 | 23.33° C | 75% | 1007 hPa | - | - | - | - |
| 1788086927 | 23.33° C | 75% | 1008 hPa | - | - | - | - |
| 1788085126 | 23.33° C | 74% | 1005 hPa | - | - | - | - |
| 1788083325 | 23.89° C | 73% | 1006 hPa | - | - | - | - |
| 1788081524 | 23.89° C | 71% | 1007 hPa | - | - | - | - |
| 1788079723 | 24.44° C | 70% | 1004 hPa | - | - | - | - |
| 1788077922 | 25° C | 68% | 1005 hPa | - | - | - | - |
| 1788076121 | 25.56° C | 67% | 1004 hPa | - | - | - | - |
| 1788074320 | 25° C | 67% | 1007 hPa | - | - | - | - |
| 1788072519 | 25° C | 68% | 1005 hPa | - | - | - | - |
| 1788070718 | 25° C | 68% | 1005 hPa | - | - | - | - |
* Rain since midnight (hover to see other rain measurements)
** Current wind speed in m/s (hover to see current wind gust speed)